• Join FlightAware (Why Join?)
  • Login
  • US Flag 
03:49AM EST


 

Airport Tracker/Info


-or-


 

Live Flight TrackerFlight Track Log ✈ SWA718 ✈ 30-Apr-2013 ✈ KMDW - KOMA

Flight Track Log - Related Links

Times and Time Zones

All times are in EDT time to prevent confusion due to time zone crossing. See the SWA718 flight status page for this flight to view local times or setup timezone preferences in your user account.

Time Position Orientation Groundspeed Altitude Reporting Facility
EDT Latitude Longitude Course Direction KTS MPH feet Rate Location/Type
11:24PM 41.7256 -87.9950 253° West 230 265 4,500  Level Chicago Center
11:25PM 41.7294 -88.0819 273° West 279 321 9,200 3,660 Climbing Chicago Center
11:26PM 41.7847 -88.1489 318° Northwest 276 318 12,000 1,860 Climbing Chicago Center
11:27PM 41.7883 -88.2592 273° West 300 345 13,000 2,160 Climbing Chicago Center
11:28PM 41.7864 -88.3867 269° West 342 394 16,400 3,240 Climbing Chicago Center
11:29PM 41.7850 -88.5225 269° West 362 417 19,700 2,760 Climbing Chicago Center
11:30PM 41.7847 -88.6639 270° West 380 437 22,100 2,580 Climbing Chicago Center
11:31PM 41.7828 -88.8136 269° West 402 463 25,000 2,820 Climbing Chicago Center
11:32PM 41.7819 -88.9950 270° West 408 470 27,800 1,440 Climbing Chicago Center
11:33PM 41.7811 -89.1497 270° West 417 480 28,000 60 Climbing Chicago Center
11:34PM 41.7744 -89.3044 267° West 421 484 28,000  Level Chicago Center
11:35PM 41.7667 -89.4589 266° West 418 481 28,000 780 Level Chicago Center
11:37PM 41.7622 -89.5997 268° West 422 486 29,600 2,040 Climbing Chicago Center
11:38PM 41.7547 -89.7542 266° West 419 482 32,200 2,220 Climbing Chicago Center
11:39PM 41.7478 -89.9067 267° West 414 476 34,100 1,860 Climbing Chicago Center
11:40PM 41.7389 -90.0903 266° West 414 476 36,000 900 Climbing Chicago Center
11:41PM 41.7317 -90.2425 266° West 413 475 36,000  Level Chicago Center
11:42PM 41.7214 -90.3994 265° West 422 486 36,000  Level Chicago Center
11:43PM 41.7147 -90.5500 267° West 410 472 36,000  Level Chicago Center
11:44PM 41.7067 -90.6947 266° West 410 472 36,000  Level Chicago Center
11:45PM 41.6972 -90.8464 265° West 410 472 36,000  Level Chicago Center
11:46PM 41.6897 -90.9986 266° West 414 476 36,000  Level Chicago Center
11:47PM 41.6803 -91.1494 265° West 411 473 36,000  Level Chicago Center
11:48PM 41.6717 -91.3028 266° West 415 478 36,000  Level Chicago Center
11:49PM 41.6606 -91.4864 265° West 416 479 36,000  Level Chicago Center
11:51PM 41.6282 -91.7308 260° West  Level FlightAware Approximate
11:55PM 41.6014 -92.3936 257° West 407 468 36,000  Level Chicago Center
11:56PM 41.5903 -92.5425 264° West 406 467 36,000  Level Chicago Center
11:57PM 41.5800 -92.6908 265° West 406 467 36,000  Level Chicago Center
11:58PM 41.5661 -92.6663 266° West  Level FlightAware Approximate
11:58PM 41.5675 -92.8561 264° West 405 466 36,000  Level Chicago Center
11:59PM 41.5576 -92.7998 265° West  Level FlightAware Approximate
11:59PM 41.5561 -93.0056 264° West 408 470 36,000  Level Chicago Center
12:00AM 41.5473 -92.9330 257° West  Level FlightAware Approximate
12:00AM 41.5453 -93.1592 265° West 411 473 36,000  Level Minneapolis Center
12:01AM 41.5336 -93.3069 264° West 408 470 36,000  Level Minneapolis Center
12:02AM 41.5219 -93.4583 264° West 412 474 36,000 -120 Level Minneapolis Center
12:03AM 41.5119 -93.6022 265° West 401 461 35,800 -1,320 Descending Minneapolis Center
12:04AM 41.4997 -93.7492 264° West 401 461 33,400 -2,700 Descending Minneapolis Center
12:05AM 41.4872 -93.8989 264° West 407 468 30,400 -2,880 Descending Minneapolis Center
12:06AM 41.4733 -94.0747 264° West 403 464 27,600 -2,580 Descending Minneapolis Center
12:07AM 41.4606 -94.2156 263° West 392 451 25,300 -2,220 Descending Minneapolis Center
12:08AM 41.4461 -94.3497 262° West 375 432 23,200 -2,100 Descending Minneapolis Center
12:09AM 41.4339 -94.4792 263° West 357 411 21,100 -2,040 Descending Minneapolis Center
12:10AM 41.4239 -94.6039 264° West 344 396 19,200 -2,040 Descending Minneapolis Center
12:11AM 41.4147 -94.7250 264° West 325 374 17,100 -2,100 Descending Minneapolis Center
12:11AM 41.4261 -94.7861 284° West 317 365 16,200 -1,800 Descending Minneapolis Center
12:12AM 41.4042 -94.8358 240° Southwest 313 360 15,300 -1,800 Descending Minneapolis Center
12:13AM 41.3956 -94.9472 264° West 305 351 13,400 -1,500 Descending Minneapolis Center
12:14AM 41.3769 -95.0561 257° West 302 348 12,300 -1,500 Descending Minneapolis Center
12:15AM 41.3539 -95.1644 254° West 304 350 10,500 -1,320 Descending Minneapolis Center
12:16AM 41.3336 -95.2669 255° West 297 342 9,700 -1,140 Descending Minneapolis Center
12:17AM 41.3139 -95.3589 254° West 279 321 8,300 -1,440 Descending Minneapolis Center
12:18AM 41.2961 -95.4492 255° West 264 304 6,900 -1,500 Descending Minneapolis Center
12:19AM 41.2778 -95.5378 255° West 256 295 5,300 -1,320 Descending Minneapolis Center
12:20AM 41.2581 -95.6547 257° West 274 315 4,200 -1,200 Descending Minneapolis Center
12:21AM 41.2367 -95.7336 250° West 269 310 2,900 -720 Descending Minneapolis Center
12:22AM 41.2242 -95.8200 259° West 244 281 2,800 -600 Descending Minneapolis Center
12:23AM 41.2558 -95.8506 324° Northwest 178 205 1,800 -900 Descending Minneapolis Center
12:24AM 41.2869 -95.8808 324° Northwest 151 174 1,100 -720 Descending Minneapolis Center
12:26AM 41.3000 -95.8833 270° West  Level FlightAware Approximate
12:33AM 41.3032 -95.8941 270° West  Level Estimated
12:34AM 41.3032 -95.8941 270° West  Level Estimated
12:35AM 41.3032 -95.8941 270° West  Level Estimated
12:36AM 41.3032 -95.8941 270° West  Level Estimated
12:37AM 41.3032 -95.8941 270° West  Level Estimated
12:38AM 41.3032 -95.8941 270° West  Level Estimated
12:39AM 41.3032 -95.8941 270° West  Level Estimated